Overview Statistics Trail Chart Weather Telemetry Raw packets
 

This is the latest recevied weather packets stored in our database for station/object KW4UJ. If no packets are shown the sender has not sent any weather packets the latest 10 day(s).

<< 36 37 38 39 40 41 42 >>
Time Temp. Humidity Pressure Rain* Wind** Luminosity Snow
1788386001 25° C 89% 1018 hPa 0 mm - 125 W/m² -
1788385691 24.44° C 89% 1017.6 hPa 0 mm - 108 W/m² -
1788385389 24.44° C 91% 1018 hPa 0 mm - 112 W/m² -
1788385085 24.44° C 93% 1018.1 hPa 0 mm - 109 W/m² -
1788384781 24.44° C 94% 1018.2 hPa 0 mm - 107 W/m² -
1788384479 23.89° C 94% 1018.4 hPa 0 mm - 109 W/m² -
1788384202 23.89° C 95% 1018 hPa 0 mm - 113 W/m² -
1788383872 23.89° C 96% 1018.1 hPa 0 mm - 114 W/m² -
1788383568 23.89° C 96% 1018.1 hPa 0 mm - 106 W/m² -
1788383267 23.89° C 96% 1018.1 hPa 0 mm - 92 W/m² -
1788382963 23.89° C 96% 1017.8 hPa 0 mm - 70 W/m² -
1788382660 23.33° C 96% 1017.6 hPa 0 mm - 50 W/m² -
1788382356 23.33° C 96% 1017.7 hPa 0 mm - 37 W/m² -
1788382051 23.33° C 96% 1017.7 hPa 0 mm - 28 W/m² -
1788381747 23.33° C 96% 1017.7 hPa 0 mm - 24 W/m² -
1788381441 23.33° C 96% 1018 hPa 0 mm - 21 W/m² -
1788381141 23.33° C 96% 1017.8 hPa 0 mm - 20 W/m² -
1788380836 23.33° C 96% 1017.7 hPa 0 mm - 19 W/m² -
1788380533 23.33° C 96% 1017.8 hPa 0 mm - 18 W/m² -
1788380229 23.33° C 96% 1018 hPa 0 mm - 16 W/m² -
1788379928 23.33° C 96% 1017.8 hPa 0 mm - 16 W/m² -
1788379623 23.33° C 96% 1018 hPa 0 mm - 14 W/m² -
1788379319 23.33° C 96% 1018.4 hPa 0 mm - 13 W/m² -
1788379014 23.33° C 96% 1018.7 hPa 0 mm - 13 W/m² -
1788378714 23.33° C 95% 1018.5 hPa 0 mm - 14 W/m² -

* Rain latest hour (hover to see other rain measurements)
** Current wind speed in m/s (hover to see current wind gust speed)